sat.trackr.live / text

‹ back to catalog

STARLINK-36784

NORAD 67877 · 2026-034AD

PAYLOAD ACTIVE UNKNOWN

§ Identity

Operator
Country
US
Launch date
2026-02-20
Launch site
AFETR
Launch vehicle
Mass (kg)
RCS (m²)

Purposes: comms

External: N2YO · Heavens-Above · Gunter

§ Orbital elements

Epoch: 2026-09-19T21:54:17.323200Z

Period
93.85 min
Inclination
53.1587°
Eccentricity
0.0001075
Mean motion
15.34410414 rev/d
Perigee alt
461.9 km
Apogee alt
463.4 km
Semi-major
6,840.8 km
B*
4.6766e-4
RAAN
20.5859°
Arg perigee
76.2577°
Mean anomaly
283.8545°
Rev number
3,379

§ Raw data

STARLINK-367841 67877U 26034AD  26262.91270050  .00015462  00000+0  46766-3 0  99912 67877  53.1587  20.5859 0001075  76.2577 283.8545 15.34410414 33796

JSON: /api/v1/satellites/67877 · /tle

For live sub-satellite position, see the globe view (requires WebGL).

§ Visibility from observer

Set your observer location to see the next 7 days of passes ≥ 10°. The values pass through the URL so the page stays shareable.

No JS? Fill the form by hand. The geolocation button needs JavaScript.